Flag for Germany Weather past 2 weeks in Lage, North Rhine-Westphalia, Germany

Now
59 °F

Clear.


Feels Like: 59 °F
Forecast: 57 / 78 °F
Wind: 1 mph from North

Location: Bad Lippspringe

Current Time: Sep 18, 2014 at 6:22:29 AM

Latest Report: Sep 18, 2014 at 6:00 AM


Visibility: 6 mi

Pressure: 29.88 "Hg

Humidity: 87%

Dew point: 55 °F

Location of LageLocation

Historic Weather in Lage — Graph

°F

Lage temperature yesterday

Maximum temperature yesterday: 75 °F (at 3:00 PM)
Minimum temperature yesterday: 57 °F (at 7:00 AM)
Average temperature yesterday: 66 °F

Past Weeks' High & Low Weather Summary

 TemperatureHumidityPressure
High79 °F (Sep 6, 3:00 PM)100% (Sep 3, 6:00 AM)30.27 "Hg (Sep 3, 6:00 AM)
Low44 °F (Sep 12, 5:00 AM)45% (Sep 6, 3:00 PM)29.85 "Hg (Sep 6, 6:00 PM)
Average61 °F81%30.06 "Hg
* Reported Sep 3 5:00 AM — Sep 18 5:00 AM, Lage, Weather by CustomWeather, © 2014

Note: Actual official high and low records may vary slightly from our data, if they occured in-between our weather recording intervals... More about our weather records

Advertising

Lage weather history for previous 24 hours

 ConditionsComfort  
Time TempWeatherWind HumidityBarometerVisibility
5:00 AM
Sep 18
58 °FClear.1 mph88%29.89 "Hg6 mi
4:00 AM60 °FClear.2 mph84%29.90 "Hg7 mi
3:00 AM61 °FClear.2 mph82%29.90 "Hg7 mi
2:00 AM62 °FClear.1 mph79%29.90 "Hg6 mi
1:00 AM63 °FClear.3 mph77%29.90 "Hg6 mi
12:00 AM63 °FClear.5 mph78%29.90 "Hg6 mi
11:00 PM
Sep 17
64 °FClear.5 mph77%29.91 "Hg6 mi
10:00 PM65 °FClear.5 mph76%29.91 "Hg6 mi
9:00 PM64 °FClear.3 mph76%29.92 "Hg7 mi
8:00 PM66 °FClear.3 mph75%29.90 "Hg7 mi
7:00 PM71 °FSunny.3 mph64%29.89 "Hg10 mi
6:00 PM73 °FPassing clouds.5 mph58%29.89 "Hg12 mi
5:00 PM74 °FPassing clouds.3 mph56%29.89 "Hg10 mi
4:00 PM75 °FSunny.3 mph55%29.90 "Hg10 mi
3:00 PM75 °FSunny.3 mph55%29.91 "Hg10 mi
2:00 PM74 °FSunny.3 mph56%29.92 "Hg9 mi
1:00 PM72 °FSunny.5 mph56%29.93 "Hg11 mi
12:00 PM71 °FSunny.7 mph57%29.94 "Hg8 mi
11:00 AM70 °FSunny.5 mph64%29.95 "Hg8 mi
10:00 AM66 °FSunny.6 mph72%29.96 "Hg5 mi
9:00 AM64 °FSunny.6 mph77%29.96 "Hg6 mi
8:00 AM59 °FFog.2 mph86%29.98 "Hg3 mi
7:00 AM57 °FFog.1 mph93%29.98 "Hg2 mi
6:00 AM59 °FFog.2 mph87%29.96 "Hg4 mi
Weather by CustomWeather, © 2014

See weather overviewHow to use our weather pages